This demonstration page uses our WeatherBlox Daily Observations layout. Learn more.

40.92945, -100.16068

Hourly Observations for June 26, 2018

Temp ( °F °C ) Dew Point ( °F °C ) Humidity (%) Winds ( mph kmh ) Pressure ( in mb ) Visibility ( mi km ) Precip ( " mm )
12:15 am 00:15 Clear 64 18 62 16.5 91 91 W 7 11 29.88 1012 10 16.0934 0 0
12:35 am 00:35 Clear 64 17.7 62 16.5 93 93 W 7 11 29.88 1012 10 16.0934 0 0
12:55 am 00:55 Clear 64 17.6 62 16.5 93 93 W 7 11 29.88 1012 10 16.0934 0 0
1:15 am 01:15 Clear 64 17.5 61 16.2 92 92 W 8 13 29.88 1012 10 16.0934 0 0
1:35 am 01:35 Clear 63 17.3 61 16 92 92 W 8 13 29.88 1012 10 16.0934 0 0
1:55 am 01:55 Clear 63 17 60 15.7 92 92 W 8 13 29.88 1012 10 16.0934 0 0
2:15 am 02:15 Clear 62 16.7 60 15.5 93 93 W 7 11 29.88 1012 10 16.0934 0 0
2:35 am 02:35 Clear 62 16.5 60 15.3 93 93 W 7 11 29.85 1011 10 16.0934 0 0
2:55 am 02:55 Clear 61 16.2 59 15.1 93 93 W 6 9 29.85 1011 10 16.0934 0 0
3:15 am 03:15 Clear 61 16 59 15 94 94 W 6 9 29.85 1011 10 16.0934 0 0
3:35 am 03:35 Clear 60 15.7 58 14.7 94 94 NW 5 7 29.85 1011 10 16.0934 0 0
3:55 am 03:55 Clear 60 15.5 58 14.6 94 94 NW 7 11 29.88 1012 10 16.0934 0 0
4:15 am 04:15 Clear 61 15.9 59 14.8 93 93 WNW 9 15 29.85 1011 10 16.0934 0 0
4:35 am 04:35 Clear 60 15.8 58 14.7 93 93 NW 9 15 29.85 1011 10 16.0934 0 0
4:55 am 04:55 Clear 60 15.7 58 14.6 93 93 NW 6 9 29.85 1011 10 16.0934 0 0
5:15 am 05:15 Clear 59 15.2 58 14.2 94 94 NW 7 11 29.88 1012 10 16.0934 0 0
5:35 am 05:35 Clear 59 14.9 57 13.9 94 94 W 5 7 29.88 1012 10 16.0934 0 0
5:55 am 05:55 Clear 58 14.3 56 13.5 95 95 W 5 7 29.88 1012 7 11.26538 0 0
6:15 am 06:15 Sunny 58 14.5 56 13.6 94 94 NW 3 6 29.88 1012 7 11.26538 0 0
6:35 am 06:35 Sunny with Mist and Fog 58 14.2 56 13.5 96 96 NNW 3 6 29.88 1012 5 8.0467 0 0
6:55 am 06:55 Sunny with Mist and Fog 58 14.5 57 13.8 96 96 W 5 7 29.91 1013 5 8.0467 0 0
7:15 am 07:15 Sunny 60 15.3 58 14.5 95 95 W 6 9 29.91 1013 10 16.0934 0 0
7:35 am 07:35 Sunny 61 16 59 15 94 94 W 7 11 29.88 1012 10 16.0934 0 0
7:55 am 07:55 Sunny 63 17.1 60 15.5 90 90 WNW 7 11 29.88 1012 10 16.0934 0 0
8:15 am 08:15 Sunny 65 18.1 61 15.9 87 87 NW 7 11 29.88 1012 10 16.0934 0 0
8:35 am 08:35 Sunny 66 18.8 61 16 84 84 NW 7 11 29.88 1012 10 16.0934 0 0
8:55 am 08:55 Sunny 67 19.7 61 16 79 79 NW 7 11 29.85 1011 10 16.0934 0 0
9:15 am 09:15 Sunny 69 20.5 61 16 76 76 NNW 7 11 29.83 1010 10 16.0934 0 0
9:35 am 09:35 Sunny 70 21.3 61 16 72 72 N 9 15 29.83 1010 10 16.0934 0 0
9:55 am 09:55 Sunny 72 22 62 16.4 71 71 N 8 13 29.83 1010 10 16.0934 0 0
10:15 am 10:15 Sunny 73 22.8 61 16.2 66 66 N 8 13 29.8 1009 7 11.26538 0 0
10:35 am 10:35 Sunny 74 23.6 60 15.8 62 62 NNE 10 17 29.8 1009 10 16.0934 0 0
10:55 am 10:55 Sunny 76 24.5 61 16 59 59 N 10 17 29.8 1009 10 16.0934 0 0
11:15 am 11:15 Sunny 77 24.8 59 15 55 55 NNE 8 13 29.8 1009 10 16.0934 0 0
11:35 am 11:35 Sunny 77 25.2 61 15.9 56 56 NNE 7 11 29.8 1009 10 16.0934 0 0
11:55 am 11:55 Sunny 78 25.6 59 15.1 52 52 Calm 29.83 1010 10 16.0934 0 0
12:15 pm 12:15 Sunny 79 26 61 15.9 54 54 E 6 9 29.83 1010 10 16.0934 0 0
12:35 pm 12:35 Sunny 79 26.2 60 15.7 52 52 Calm 29.83 1010 10 16.0934 0 0
12:55 pm 12:55 Sunny 80 26.6 59 14.8 48 48 Calm 29.8 1009 10 16.0934 0 0
1:15 pm 13:15 Sunny 81 27.4 61 16.1 50 50 E 3 6 29.77 1008 10 16.0934 0 0
1:35 pm 13:35 Sunny 81 27.2 60 15.7 49 49 ESE 6 9 29.77 1008 10 16.0934 0 0
1:55 pm 13:55 Sunny 82 27.6 62 16.6 51 51 SE 6 9 29.77 1008 10 16.0934 0 0
2:15 pm 14:15 Sunny 82 28 61 16.3 49 49 S 6 9 29.77 1008 10 16.0934 0 0
2:35 pm 14:35 Sunny 83 28.1 60 15.7 47 47 S 6 9 29.77 1008 10 16.0934 0 0
2:55 pm 14:55 Sunny 83 28.6 63 17.3 50 50 S 6 9 29.77 1008 10 16.0934 0 0
3:15 pm 15:15 Sunny 83 28.5 62 16.5 48 48 SSE 5 7 29.77 1008 10 16.0934 0 0
3:35 pm 15:35 Sunny 84 28.7 61 16.2 47 47 SE 3 6 29.77 1008 10 16.0934 0 0
3:55 pm 15:55 Sunny 84 28.7 63 17 49 49 ESE 3 6 29.77 1008 10 16.0934 0 0
4:15 pm 16:15 Sunny 84 29 62 16.9 48 48 Calm 29.77 1008 10 16.0934 0 0
4:35 pm 16:35 Sunny 85 29.2 63 17 48 48 SE 6 9 29.77 1008 10 16.0934 0 0
4:55 pm 16:55 Sunny 85 29.7 62 16.6 45 45 Calm 29.71 1006 10 16.0934 0 0
5:15 pm 17:15 Sunny 85 29.6 62 16.8 46 46 Calm 29.71 1006 10 16.0934 0 0
5:35 pm 17:35 Sunny 86 30 64 17.7 48 48 WSW 5 7 29.71 1006 10 16.0934 0 0
5:55 pm 17:55 Sunny 86 29.8 63 17.3 47 47 S 5 7 29.71 1006 10 16.0934 0 0
6:15 pm 18:15 Sunny 85 29.5 63 17.3 48 48 SSE 5 7 29.71 1006 10 16.0934 0 0
6:35 pm 18:35 Sunny 85 29.6 63 17.1 47 47 SSW 8 13 29.71 1006 10 16.0934 0 0
6:55 pm 18:55 Sunny 85 29.5 64 17.5 48 48 SSW 7 11 29.71 1006 10 16.0934 0 0
7:15 pm 19:15 Sunny 85 29.5 64 17.5 48 48 S 6 9 29.71 1006 10 16.0934 0 0
7:35 pm 19:35 Sunny 84 29.1 64 17.7 50 50 S 3 6 29.74 1007 7 11.26538 0 0
7:55 pm 19:55 Sunny 83 28.6 65 18.6 55 55 S 5 7 29.74 1007 10 16.0934 0 0
8:15 pm 20:15 Sunny 82 27.9 67 19.2 59 59 SSE 5 7 29.74 1007 10 16.0934 0 0
8:35 pm 20:35 Sunny 80 26.6 67 19.5 65 65 SSE 6 9 29.71 1006 10 16.0934 0 0
8:55 pm 20:55 Sunny 78 25.4 66 19.1 68 68 SE 7 11 29.71 1006 10 16.0934 0 0
9:15 pm 21:15 Clear 78 25.3 65 18.3 65 65 SE 9 15 29.68 1005 10 16.0934 0 0
9:35 pm 21:35 Clear 78 25.3 64 17.8 63 63 SE 7 11 29.74 1007 10 16.0934 0 0
9:55 pm 21:55 Clear 75 23.7 65 18.1 71 71 SE 8 13 29.74 1007 10 16.0934 0 0
10:15 pm 22:15 Clear 74 23.6 64 18 71 71 SE 6 9 29.77 1008 10 16.0934 0 0
10:35 pm 22:35 Clear 73 22.9 65 18.1 74 74 SE 5 7 29.77 1008 10 16.0934 0 0
10:55 pm 22:55 Clear 72 22.3 65 18.5 79 79 SE 5 7 29.77 1008 10 16.0934 0 0
11:15 pm 23:15 Clear 72 22.2 65 18.5 80 80 SE 7 11 29.77 1008 10 16.0934 0 0
11:35 pm 23:35 Clear 73 22.6 65 18.5 78 78 SE 6 9 29.77 1008 10 16.0934 0 0
11:55 pm 23:55 Clear 72 22 65 18.2 79 79 SE 6 9 29.8 1009 10 16.0934 0 0

Powered by AerisWeather